Weather History for Mountain Home, ID

Change the Weather History Date:

Monday, January 27, 2014

  Actual Average Record
Temperature  
Mean Temperature 24 °F 32 °F  
Max Temperature 25 °F 40 °F 57 °F (1983)
Min Temperature 22 °F 23 °F -7 °F (1957)
Degree Days  
Heating Degree Days 41 33  
Month to date heating degree days 938 938  
Cooling Degree Days 0 0  
Month to date cooling degree days 0 0  
Moisture  
Dew Point 23 °F    
Average Humidity 100    
Maximum Humidity 100    
Minimum Humidity 100    
Precipitation  
Precipitation T in 0.04 in 0.65 in (1925)
Month to date precipitation 0.30 1.01  
Sea Level Pressure  
Sea Level Pressure 30.29 in    
Wind  
Wind Speed 3 mph (West)    
Max Wind Speed 8 mph    
Max Gust Speed -    
Visibility 5 miles    
Events Snow    
T = Trace of Precipitation, MM = Missing Value Source: NWS Daily Summary

Daily Weather History Graph

Daily Weather History Graph

Search for Another Location

Airport:

Trip Planner

Search our weather history database for the weather conditions in past years. The results will help you decide how hot, cold, wet, or windy it might be!

Date:

Astronomy

Jan. 27, 2014 Rise Set
Actual Time 8:03 AM MST 5:49 PM MST
Civil Twilight 7:32 AM MST 6:20 PM MST
Nautical Twilight 6:58 AM MST 6:54 PM MST
Astronomical Twilight 6:25 AM MST 7:27 PM MST
Moon 4:50 AM MST (1/27) 2:38 PM MST (1/27)
Length of Visible Light 10h 47m
Length of Day
9h 46m
Waning Crescent, 14% of the Moon is Illuminated
Jan 27
Waning Crescent
Jan 30
New
Feb 6
First Quarter
Feb 14
Full
Feb 22
Last Quarter

Hourly Weather History & Observations

Time (MST) Temp. Windchill Dew Point Humidity Pressure Visibility Wind Dir Wind Speed Gust Speed Precip Events Conditions
12:18 AM 23.0 °F - 23.0 °F 100% 30.18 in 7.0 mi SE 2.3 mph - N/A   Overcast
12:58 AM 22.8 °F - 22.8 °F 100% 30.29 in 6.0 mi Calm Calm - N/A   Overcast
1:58 AM 22.6 °F 18.0 °F 22.6 °F 100% 30.28 in 6.0 mi ENE 3.5 mph - N/A   Overcast
2:18 AM 23.0 °F 18.4 °F 23.0 °F 100% 30.16 in 5.0 mi NNE 3.5 mph - N/A   Overcast
2:28 AM 23.0 °F - 23.0 °F 100% 30.17 in 5.0 mi East 2.3 mph - N/A   Overcast
2:58 AM 22.1 °F - 22.1 °F 100% 30.29 in 7.0 mi Calm Calm - N/A   Overcast
3:33 AM 23.0 °F 18.4 °F 23.0 °F 100% 30.19 in 5.0 mi NNW 3.5 mph - N/A   Overcast
3:58 AM 22.5 °F 17.8 °F 22.5 °F 100% 30.29 in 4.0 mi WSW 3.5 mph - N/A   Overcast
4:18 AM 23.0 °F - 23.0 °F 100% 30.19 in 3.0 mi West 2.3 mph - N/A   Overcast
4:23 AM 23.0 °F 18.4 °F 23.0 °F 100% 30.19 in 2.5 mi WNW 3.5 mph - N/A   Overcast
4:48 AM 23.0 °F - 23.0 °F 100% 30.19 in 3.0 mi Variable 2.3 mph - N/A   Overcast
4:58 AM 22.3 °F 17.6 °F 22.3 °F 100% 30.28 in 4.0 mi NE 3.5 mph - N/A   Overcast
5:08 AM 21.2 °F - 21.2 °F 100% 30.18 in 2.0 mi Calm Calm - N/A   Overcast
5:13 AM 21.2 °F - 21.2 °F 100% 30.18 in 2.0 mi Variable 1.2 mph - N/A   Overcast
5:55 AM 21.9 °F - 21.9 °F 100% 30.29 in 1.0 mi Calm Calm - N/A   Mist
6:23 AM 21.2 °F - 21.2 °F 100% 30.18 in 0.8 mi NNW 1.2 mph - N/A   Mist
6:48 AM 21.2 °F 16.4 °F 21.2 °F 100% 30.19 in 1.0 mi Variable 3.5 mph - N/A   Mist
6:58 AM 21.9 °F - 21.9 °F 100% 30.30 in 1.0 mi NW 1.2 mph - N/A   Overcast
7:58 AM 21.7 °F - 21.7 °F 100% 30.31 in 1.0 mi WNW 2.3 mph - N/A   Overcast
8:58 AM 21.9 °F 17.2 °F 21.9 °F 100% 30.33 in 1.1 mi WSW 3.5 mph - N/A   Overcast
9:58 AM 22.3 °F - 22.3 °F 100% 30.35 in 1.0 mi West 2.3 mph - N/A   Overcast
10:16 AM 23.0 °F 18.4 °F 23.0 °F 100% 30.24 in 1.0 mi West 3.5 mph - N/A   Overcast
10:28 AM 23.0 °F - 23.0 °F 100% 30.24 in 1.0 mi NW 2.3 mph - N/A   Overcast
10:58 AM 23.0 °F 18.4 °F 23.0 °F 100% 30.25 in 1.0 mi West 3.5 mph - N/A   Overcast
11:58 AM 23.0 °F 17.0 °F 23.0 °F 100% 30.37 in 1.2 mi WSW 4.6 mph - N/A   Overcast
12:58 PM 23.4 °F 18.9 °F 23.4 °F 100% 30.36 in 1.2 mi West 3.5 mph - N/A   Overcast
1:58 PM 23.7 °F 19.3 °F 23.7 °F 100% 30.34 in 1.5 mi West 3.5 mph - N/A   Overcast
2:26 PM 24.8 °F 20.5 °F 24.8 °F 100% 30.24 in 4.0 mi WNW 3.5 mph - N/A   Overcast
2:57 PM 24.1 °F 18.2 °F 24.1 °F 100% 30.35 in 3.0 mi West 4.6 mph - 0.00 in Snow Light Snow Grains
3:58 PM 24.8 °F 19.1 °F 24.8 °F 100% 30.35 in 5.0 mi West 4.6 mph - 0.00 in   Overcast
4:58 PM 24.8 °F 16.1 °F 24.8 °F 100% 30.25 in 7.0 mi West 8.1 mph - N/A   Overcast
5:58 PM 24.8 °F 20.5 °F 24.8 °F 100% 30.35 in 6.0 mi Variable 3.5 mph - N/A   Overcast
6:58 PM 24.8 °F 19.1 °F 24.8 °F 100% 30.35 in 6.0 mi SW 4.6 mph - N/A   Overcast
7:59 PM 24.8 °F 20.5 °F 24.8 °F 100% 30.38 in 6.0 mi Variable 3.5 mph - N/A   Overcast
8:56 PM 24.8 °F 17.9 °F 24.8 °F 100% 30.40 in 10.0 mi SE 5.8 mph - N/A   Overcast
8:58 PM 24.8 °F 20.5 °F 24.8 °F 100% 30.39 in 7.0 mi Variable 3.5 mph - N/A   Overcast
9:41 PM 24.8 °F 17.9 °F 24.8 °F 100% 30.31 in 10.0 mi SE 5.8 mph - N/A   Overcast
9:51 PM 24.8 °F 17.9 °F 24.8 °F 100% 30.30 in 10.0 mi SE 5.8 mph - N/A   Overcast
9:58 PM 25.0 °F 17.1 °F 25.0 °F 100% 30.40 in 10.0 mi ESE 6.9 mph - N/A   Overcast
10:03 PM 24.8 °F 17.9 °F 24.8 °F 100% 30.30 in 10.0 mi ESE 5.8 mph - N/A   Overcast
10:18 PM 24.8 °F 19.1 °F 24.8 °F 100% 30.32 in 10.0 mi ESE 4.6 mph - N/A   Overcast
10:56 PM 25.3 °F 18.5 °F 25.3 °F 100% 30.44 in 10.0 mi East 5.8 mph - N/A   Overcast
11:58 PM 25.3 °F 16.7 °F 25.3 °F 100% 30.44 in 10.0 mi SE 8.1 mph - N/A   Overcast